Regional Weather Roundup
Issued by NWS State College, PA

Home | Current Version | Previous Version | Text Only | Print | Product List | Glossary Off
Versions: 1 2 3 4 5 6 7 8 9 10 11 12 13 14 15 16 17 18 19 20 21 22 23 24 25 26 27 28 29 30 31 32 33 34 35 36 37 38 39 40 41 42 43 44 45 46 47 48 49 50

000
ASUS41 KCTP 222303
RWRCTP

REGIONAL WEATHER ROUNDUP
NATIONAL WEATHER SERVICE STATE COLLEGE PA
600 PM EST WED FEB 22 2017

Note: "fair" indicates few or no clouds below 12,000 feet with no
significant weather and/or obstructions to visibility.

* = STATION THAT DOES NOT REPORT PRECIPITATION /E.G. RAIN...SNOW...ETC/
    THUNDER OR FOG.

PAZ002>004-007>009-013>016-020>023-029>032-230000-
WESTERN PENNSYLVANIA

CITY           SKY/WX    TMP DP  RH WIND       PRES   REMARKS
ERIE           CLOUDY    59  53  80 S15       29.80S
MEADVILLE      CLOUDY    54  52  93 CALM      29.83S FOG
FRANKLIN*      CLOUDY    55  48  76 CALM      29.85S
NEW CASTLE     CLOUDY    59  53  80 CALM      29.83S
BEAVER COUNTY  CLOUDY    61  50  67 CALM      29.83
BUTLER*        CLOUDY    63  46  55 S3        29.84S
PITTSBURGH INT CLOUDY    63  49  60 W5        29.83S
PITTSBURGH     CLOUDY    64  45  49 SW7       29.82F
INDIANA*       CLEAR     61  46  59 CALM      29.86F
LATROBE        PTCLDY    63  46  55 CALM      29.84F
WASHINGTON CO* CLOUDY    63  48  59 SW6       29.85F
$$

PAZ004>006-010>012-017>019-024>028-033>037-041-042-045-046-049>053-230000-
CENTRAL PENNSYLVANIA

CITY           SKY/WX    TMP DP  RH WIND       PRES   REMARKS
BRADFORD       LGT RAIN  52  52 100 S3        29.85F FOG
DUBOIS         MOCLDY    60  43  53 CALM      29.84S
CLEARFIELD       N/A    N/A N/A N/A MISG      29.85S
JOHNSTOWN      CLOUDY    58  44  60 NW5       29.85S
ALTOONA        CLOUDY    58  43  57 N7        29.85F
STATE COLLEGE  PTCLDY    59  41  51 CALM      29.85F
WILLIAMSPORT   CLOUDY    52  37  56 SE5       29.88R
SELINSGROVE    CLOUDY    51  40  65 CALM      29.89S
FT INDIANTOWN  MOCLDY    55  42  60 CALM      29.88S
CAPITAL CITY   PTCLDY    61  40  45 SE3       29.88S
HARRISBURG     MOCLDY    54  42  64 S3        29.88S
YORK           CLEAR     58  43  57 CALM      29.88F
$$

PAZ038>040-043-044-047-048-054-055-060>062-067>071-230000-
EASTERN PENNSYLVANIA

CITY           SKY/WX    TMP DP  RH WIND       PRES   REMARKS
SCRANTON       MOCLDY    54  40  59 SW3       29.87F
MOUNT POCONO   CLOUDY    49  40  71 CALM      29.87F
ALLENTOWN      PTCLDY    58  39  49 CALM      29.89S
QUAKERTOWN*    MOCLDY    57  41  54 CALM      29.90S
READING        PTCLDY    57  43  59 SW6       29.88F
LANCASTER      PTCLDY    55  44  66 SE7       29.89S
COATESVILLE    CLOUDY    54  41  62 CALM      29.92S
POTTSTOWN      PTCLDY    56  41  57 SE5       29.91S
BLUE BELL      CLEAR     52  41  66 S3        29.90S
DOYLESTOWN     CLOUDY    56  41  57 S3        29.89F
WILLOW GROVE   NOT AVBL
NORTH PHILA    CLEAR     57  43  59 SW6       29.93S
PHILADELPHIA   MOCLDY    54  42  64 SW7       29.93R
$$




USA.gov is the U.S. government's official web portal to all federal, state and local government web resources and services.